Simultaneous Nadir Overpasses (SNOs) Predictions

Prediction of SNOs between GOES-15 and TERRA Satellite Orbit:

Table of predicted SNOs for the next 14.0 days since TLE Epoch: 8/27/2016
Index Date Time (GOES-15) GOES-15 Lat,Lon TERRA Lat,Lon Distance(km) Time Diff (sec)
1 08/27/2016 19:31:41 -0.25,-135.22 -0.15,-135.65 49.37 80
2 08/29/2016 19:22:08 -0.25,-135.27 -0.78,-132.69 293.31 80
3 08/30/2016 07:40:52 0.27,-135.25 -0.30,-137.88 299.97 80
4 09/01/2016 07:31:19 0.27,-135.30 0.33,-134.92 42.43 80
5 09/03/2016 07:19:07 0.27,-135.34 1.02,-131.97 384.39 80
6 09/03/2016 19:37:41 -0.29,-135.39 0.11,-137.12 197.41 80
7 09/05/2016 19:28:10 -0.28,-135.43 -0.58,-134.17 144.17 80
8 09/06/2016 07:46:52 0.30,-135.41 -0.55,-139.35 448.48 80
9 09/07/2016 19:15:57 -0.28,-135.47 -1.21,-131.21 485.11 80
10 09/08/2016 07:34:39 0.30,-135.45 0.08,-136.39 107.78 80




NCC Satellite Simultaneous Nadir Overpasses (SNOs) Prediction Service
